| time (UTC) | temp F | wind direction | speed MPH | gust MPH | rain 1hr in | rain 24hr in | rain mn in | humidity % | barometer mb |
| 20260509171203 | 72 | 124 | 1.0 | 4.0 | 0.00 | 0.00 | 0.00 | 54 | 1011.6 |
| 20260509170603 | 72 | 114 | 1.0 | 4.0 | 0.00 | 0.00 | 0.00 | 50 | 1011.5 |
| 20260509170003 | 72 | 102 | 0.0 | 4.0 | 0.00 | 0.00 | 0.00 | 48 | 1011.6 |
| 20260509165403 | 72 | 24 | 0.0 | 4.0 | 0.00 | 0.00 | 0.00 | 50 | 1011.5 |
| 20260509164803 | 71 | 349 | 0.0 | 4.0 | 0.00 | 0.00 | 0.00 | 54 | 1011.6 |
| 20260509164203 | 70 | 91 | 0.0 | 2.0 | 0.00 | 0.00 | 0.00 | 53 | 1011.6 |
| 20260509163603 | 70 | 123 | 0.0 | 4.0 | 0.00 | 0.00 | 0.00 | 53 | 1011.7 |
| 20260509163003 | 69 | 126 | 0.0 | 5.0 | 0.00 | 0.00 | 0.00 | 53 | 1011.6 |
| 20260509162403 | 68 | 125 | 1.0 | 5.0 | 0.00 | 0.00 | 0.00 | 55 | 1011.8 |
| 20260509161803 | 67 | 128 | 1.0 | 7.0 | 0.00 | 0.00 | 0.00 | 58 | 1011.8 |
| 20260509161203 | 66 | 125 | 1.0 | 7.0 | 0.00 | 0.00 | 0.00 | 60 | 1011.8 |
| 20260509160603 | 64 | 105 | 1.0 | 5.0 | 0.00 | 0.00 | 0.00 | 65 | 1011.7 |
| 20260509160024 | 64 | 99 | 1.0 | 5.0 | 0.00 | 0.00 | 0.00 | 67 | 1011.6 |
| 20260509155424 | 63 | 97 | 1.0 | 4.0 | 0.00 | 0.00 | 0.00 | 70 | 1011.6 |
| 20260509154803 | 62 | 101 | 0.0 | 4.0 | 0.00 | 0.00 | 0.00 | 71 | 1011.7 |
| 20260509154203 | 62 | 101 | 0.0 | 5.0 | 0.00 | 0.00 | 0.00 | 71 | 1011.9 |
| 20260509153603 | 62 | 101 | 0.0 | 5.0 | 0.00 | 0.00 | 0.00 | 71 | 1011.9 |
| 20260509153003 | 61 | 101 | 0.0 | 2.0 | 0.00 | 0.00 | 0.00 | 70 | 1012.0 |
| 20260509152424 | 60 | 101 | 0.0 | 2.0 | 0.00 | 0.00 | 0.00 | 70 | 1011.9 |
| 20260509151803 | 60 | 101 | 0.0 | 5.0 | 0.00 | 0.00 | 0.00 | 69 | 1012.0 |
| 20260509151203 | 60 | 101 | 0.0 | 5.0 | 0.00 | 0.00 | 0.00 | 70 | 1011.9 |
| 20260509150603 | 59 | 101 | 0.0 | 4.0 | 0.00 | 0.00 | 0.00 | 72 | 1011.9 |
| 20260509150024 | 59 | 101 | 1.0 | 5.0 | 0.00 | 0.00 | 0.00 | 72 | 1011.7 |
| 20260509145403 | 59 | 101 | 1.0 | 5.0 | 0.00 | 0.00 | 0.00 | 73 | 1011.6 |
| 20260509144803 | 58 | 101 | 1.0 | 6.0 | 0.00 | 0.00 | 0.00 | 74 | 1011.6 |
| 20260509144203 | 58 | 102 | 2.0 | 6.0 | 0.00 | 0.00 | 0.00 | 73 | 1011.6 |
| 20260509143603 | 58 | 103 | 1.0 | 6.0 | 0.00 | 0.00 | 0.00 | 75 | 1011.6 |
| 20260509143003 | 58 | 99 | 1.0 | 5.0 | 0.00 | 0.00 | 0.00 | 77 | 1011.5 |
| 20260509142424 | 58 | 88 | 0.0 | 4.0 | 0.00 | 0.00 | 0.00 | 79 | 1011.6 |
| 20260509141803 | 58 | 63 | 1.0 | 4.0 | 0.00 | 0.00 | 0.00 | 80 | 1011.6 |
| 20260509141203 | 58 | 33 | 1.0 | 3.0 | 0.00 | 0.00 | 0.00 | 81 | 1011.6 |
| 20260509140603 | 58 | 337 | 0.0 | 2.0 | 0.00 | 0.00 | 0.00 | 80 | 1011.6 |
| 20260509140004 | 58 | 0 | 0.0 | 0.0 | 0.00 | 0.00 | 0.00 | 80 | 1011.6 |
| 20260509135403 | 58 | 336 | 1.0 | 5.0 | 0.00 | 0.00 | 0.00 | 80 | 1011.5 |
| 20260509134803 | 58 | 336 | 1.0 | 5.0 | 0.00 | 0.00 | 0.00 | 77 | 1011.5 |
| 20260509134203 | 58 | 336 | 0.0 | 2.0 | 0.00 | 0.00 | 0.00 | 76 | 1011.4 |
| 20260509133624 | 58 | 346 | 1.0 | 7.0 | 0.00 | 0.00 | 0.00 | 76 | 1011.6 |
| 20260509133004 | 58 | 10 | 2.0 | 7.0 | 0.00 | 0.00 | 0.00 | 76 | 1011.5 |
| 20260509132403 | 58 | 59 | 0.0 | 3.0 | 0.00 | 0.00 | 0.00 | 75 | 1011.5 |
| 20260509131803 | 58 | 78 | 0.0 | 2.0 | 0.00 | 0.00 | 0.00 | 74 | 1011.6 |
| 20260509131203 | 58 | 82 | 0.0 | 2.0 | 0.00 | 0.00 | 0.00 | 74 | 1011.5 |
| 20260509130603 | 58 | 98 | 0.0 | 2.0 | 0.00 | 0.00 | 0.00 | 73 | 1011.6 |
| 20260509130003 | 57 | 98 | 0.0 | 2.0 | 0.00 | 0.00 | 0.00 | 73 | 1011.5 |
| 20260509125403 | 57 | 98 | 0.0 | 2.0 | 0.00 | 0.00 | 0.00 | 71 | 1011.6 |
| 20260509124803 | 57 | 98 | 0.0 | 2.0 | 0.00 | 0.00 | 0.00 | 70 | 1011.6 |
| 20260509124203 | 57 | 98 | 0.0 | 2.0 | 0.00 | 0.00 | 0.00 | 69 | 1011.6 |
| 20260509123603 | 57 | 100 | 0.0 | 4.0 | 0.00 | 0.00 | 0.00 | 70 | 1011.7 |
| 20260509123003 | 57 | 100 | 0.0 | 4.0 | 0.00 | 0.00 | 0.00 | 68 | 1011.6 |
| 20260509122403 | 57 | 102 | 0.0 | 2.0 | 0.00 | 0.00 | 0.00 | 69 | 1011.6 |
| 20260509121803 | 57 | 102 | 0.0 | 2.0 | 0.00 | 0.00 | 0.00 | 68 | 1011.5 |
| 20260509121224 | 57 | 102 | 1.0 | 5.0 | 0.00 | 0.00 | 0.00 | 66 | 1011.5 |
| 20260509120603 | 57 | 102 | 2.0 | 6.0 | 0.00 | 0.00 | 0.00 | 67 | 1011.5 |
| 20260509120003 | 57 | 105 | 2.0 | 7.0 | 0.00 | 0.00 | 0.00 | 68 | 1011.5 |
| 20260509115403 | 57 | 109 | 2.0 | 7.0 | 0.00 | 0.00 | 0.00 | 68 | 1011.5 |
| 20260509114824 | 57 | 106 | 2.0 | 7.0 | 0.00 | 0.00 | 0.00 | 69 | 1011.4 |
| 20260509114203 | 57 | 100 | 2.0 | 6.0 | 0.00 | 0.00 | 0.00 | 69 | 1011.5 |
| 20260509113603 | 57 | 100 | 2.0 | 7.0 | 0.00 | 0.00 | 0.00 | 69 | 1011.4 |
| 20260509113003 | 57 | 100 | 3.0 | 8.0 | 0.00 | 0.00 | 0.00 | 70 | 1011.5 |
| 20260509112403 | 57 | 100 | 4.0 | 8.0 | 0.00 | 0.00 | 0.00 | 70 | 1011.4 |
| 20260509111803 | 57 | 101 | 4.0 | 8.0 | 0.00 | 0.00 | 0.00 | 70 | 1011.3 |
| 20260509111203 | 57 | 102 | 3.0 | 7.0 | 0.00 | 0.00 | 0.00 | 71 | 1011.5 |
| 20260509110603 | 57 | 99 | 2.0 | 6.0 | 0.00 | 0.00 | 0.00 | 70 | 1011.5 |
| 20260509110003 | 57 | 98 | 2.0 | 6.0 | 0.00 | 0.00 | 0.00 | 70 | 1011.5 |
| 20260509105403 | 57 | 98 | 1.0 | 4.0 | 0.00 | 0.00 | 0.00 | 69 | 1011.5 |
| 20260509104803 | 57 | 98 | 2.0 | 6.0 | 0.00 | 0.00 | 0.00 | 70 | 1011.5 |
| 20260509104203 | 57 | 97 | 2.0 | 6.0 | 0.00 | 0.00 | 0.00 | 71 | 1011.5 |
| 20260509103603 | 58 | 96 | 1.0 | 4.0 | 0.00 | 0.00 | 0.00 | 70 | 1011.5 |
| 20260509103024 | 58 | 96 | 1.0 | 6.0 | 0.00 | 0.00 | 0.00 | 71 | 1011.6 |
| 20260509102403 | 58 | 96 | 1.0 | 6.0 | 0.00 | 0.00 | 0.00 | 70 | 1011.6 |
| 20260509101803 | 58 | 96 | 1.0 | 5.0 | 0.00 | 0.00 | 0.00 | 70 | 1011.7 |
| 20260509101203 | 58 | 96 | 1.0 | 5.0 | 0.00 | 0.00 | 0.00 | 70 | 1011.6 |
| 20260509100603 | 58 | 96 | 1.0 | 4.0 | 0.00 | 0.00 | 0.00 | 71 | 1011.6 |
| 20260509100004 | 58 | 96 | 1.0 | 6.0 | 0.00 | 0.00 | 0.00 | 71 | 1011.6 |
| 20260509095403 | 58 | 96 | 2.0 | 6.0 | 0.00 | 0.00 | 0.00 | 71 | 1011.6 |
| 20260509094803 | 58 | 96 | 1.0 | 5.0 | 0.00 | 0.00 | 0.00 | 71 | 1011.7 |
| 20260509094203 | 58 | 96 | 2.0 | 5.0 | 0.00 | 0.00 | 0.00 | 72 | 1011.8 |
| 20260509093603 | 58 | 96 | 2.0 | 6.0 | 0.00 | 0.00 | 0.00 | 72 | 1011.8 |
| 20260509093003 | 58 | 96 | 1.0 | 6.0 | 0.00 | 0.00 | 0.00 | 73 | 1011.8 |
| 20260509092403 | 58 | 96 | 1.0 | 5.0 | 0.00 | 0.00 | 0.00 | 74 | 1011.8 |
| 20260509091803 | 58 | 96 | 0.0 | 2.0 | 0.00 | 0.00 | 0.00 | 74 | 1011.9 |
| 20260509091203 | 59 | 96 | 1.0 | 2.0 | 0.00 | 0.00 | 0.00 | 74 | 1011.9 |
| 20260509090603 | 59 | 96 | 0.0 | 2.0 | 0.00 | 0.00 | 0.00 | 74 | 1012.0 |
| 20260509090024 | 58 | 96 | 0.0 | 2.0 | 0.00 | 0.00 | 0.00 | 74 | 1012.0 |
| 20260509085403 | 58 | 96 | 0.0 | 2.0 | 0.00 | 0.00 | 0.00 | 74 | 1012.1 |
| 20260509084803 | 59 | 96 | 1.0 | 2.0 | 0.00 | 0.00 | 0.00 | 74 | 1012.0 |
| 20260509084224 | 59 | 96 | 0.0 | 2.0 | 0.00 | 0.00 | 0.00 | 74 | 1012.1 |
| 20260509083603 | 59 | 96 | 0.0 | 2.0 | 0.00 | 0.00 | 0.00 | 74 | 1012.0 |
| 20260509083003 | 59 | 96 | 0.0 | 1.0 | 0.00 | 0.00 | 0.00 | 73 | 1012.1 |
| 20260509082403 | 59 | 96 | 0.0 | 2.0 | 0.00 | 0.00 | 0.00 | 74 | 1012.2 |
| 20260509081824 | 59 | 96 | 0.0 | 2.0 | 0.00 | 0.00 | 0.00 | 72 | 1012.2 |
| 20260509081203 | 59 | 96 | 0.0 | 2.0 | 0.00 | 0.00 | 0.00 | 72 | 1012.2 |
| 20260509080603 | 59 | 96 | 0.0 | 2.0 | 0.00 | 0.00 | 0.00 | 72 | 1012.2 |
| 20260509080003 | 60 | 96 | 0.0 | 5.0 | 0.00 | 0.00 | 0.00 | 73 | 1012.3 |
| 20260509075403 | 60 | 96 | 0.0 | 5.0 | 0.00 | 0.00 | 0.00 | 72 | 1012.4 |
| 20260509074803 | 60 | 96 | 1.0 | 4.0 | 0.00 | 0.00 | 0.00 | 72 | 1012.4 |
| 20260509074203 | 60 | 96 | 1.0 | 5.0 | 0.00 | 0.00 | 0.00 | 72 | 1012.4 |
| 20260509073603 | 60 | 96 | 1.0 | 5.0 | 0.00 | 0.00 | 0.00 | 72 | 1012.4 |
| 20260509073003 | 60 | 96 | 1.0 | 5.0 | 0.00 | 0.00 | 0.00 | 72 | 1012.4 |
| 20260509072403 | 60 | 95 | 1.0 | 6.0 | 0.00 | 0.00 | 0.00 | 73 | 1012.4 |
| 20260509071803 | 60 | 94 | 1.0 | 6.0 | 0.00 | 0.00 | 0.00 | 73 | 1012.4 |
| 20260509071203 | 60 | 94 | 1.0 | 4.0 | 0.00 | 0.00 | 0.00 | 73 | 1012.3 |
| 20260509070603 | 60 | 94 | 1.0 | 5.0 | 0.00 | 0.00 | 0.00 | 73 | 1012.3 |
| 20260509070024 | 60 | 93 | 2.0 | 5.0 | 0.00 | 0.00 | 0.00 | 73 | 1012.4 |
| 20260509065403 | 60 | 81 | 1.0 | 4.0 | 0.00 | 0.00 | 0.00 | 73 | 1012.4 |
| 20260509064803 | 60 | 65 | 1.0 | 3.0 | 0.00 | 0.00 | 0.00 | 73 | 1012.3 |
| 20260509064203 | 60 | 59 | 0.0 | 2.0 | 0.00 | 0.00 | 0.00 | 74 | 1012.4 |
| 20260509063603 | 61 | 59 | 0.0 | 2.0 | 0.00 | 0.00 | 0.00 | 74 | 1012.4 |
| 20260509063003 | 61 | 59 | 0.0 | 2.0 | 0.00 | 0.00 | 0.00 | 74 | 1012.5 |
| 20260509062424 | 61 | 59 | 0.0 | 2.0 | 0.00 | 0.00 | 0.00 | 74 | 1012.4 |
| 20260509061803 | 61 | 59 | 0.0 | 2.0 | 0.00 | 0.00 | 0.00 | 75 | 1012.3 |
| 20260509061203 | 61 | 57 | 0.0 | 3.0 | 0.00 | 0.00 | 0.00 | 75 | 1012.5 |
| 20260509060603 | 61 | 55 | 0.0 | 3.0 | 0.00 | 0.00 | 0.00 | 76 | 1012.5 |
| 20260509060024 | 61 | 47 | 0.0 | 3.0 | 0.00 | 0.00 | 0.00 | 76 | 1012.4 |
| 20260509055403 | 61 | 36 | 0.0 | 2.0 | 0.00 | 0.00 | 0.00 | 76 | 1012.4 |
| 20260509054803 | 62 | 26 | 0.0 | 2.0 | 0.00 | 0.00 | 0.00 | 76 | 1012.5 |
| 20260509054203 | 62 | 5 | 0.0 | 2.0 | 0.00 | 0.00 | 0.00 | 77 | 1012.5 |
| 20260509053603 | 62 | 334 | 0.0 | 2.0 | 0.00 | 0.00 | 0.00 | 76 | 1012.6 |
| 20260509053003 | 62 | 0 | 0.0 | 0.0 | 0.00 | 0.00 | 0.00 | 76 | 1012.6 |
| 20260509052403 | 62 | 0 | 0.0 | 0.0 | 0.00 | 0.00 | 0.00 | 76 | 1012.6 |
| 20260509051803 | 62 | 0 | 0.0 | 0.0 | 0.00 | 0.00 | 0.00 | 76 | 1012.6 |
| 20260509051203 | 62 | 332 | 0.0 | 1.0 | 0.00 | 0.00 | 0.00 | 75 | 1012.7 |
| 20260509050624 | 62 | 332 | 0.0 | 2.0 | 0.00 | 0.00 | 0.00 | 74 | 1012.7 |
| 20260509050003 | 63 | 332 | 0.0 | 2.0 | 0.00 | 0.00 | 0.00 | 74 | 1012.8 |
| 20260509045403 | 63 | 332 | 0.0 | 2.0 | 0.00 | 0.00 | 0.00 | 73 | 1012.7 |
| 20260509044803 | 63 | 332 | 0.0 | 2.0 | 0.00 | 0.00 | 0.00 | 72 | 1012.8 |
| 20260509044203 | 63 | 332 | 0.0 | 2.0 | 0.00 | 0.00 | 0.00 | 72 | 1012.6 |
| 20260509043603 | 63 | 332 | 1.0 | 4.0 | 0.00 | 0.00 | 0.00 | 72 | 1012.6 |
| 20260509043003 | 63 | 332 | 1.0 | 4.0 | 0.00 | 0.00 | 0.00 | 72 | 1012.5 |
| 20260509042403 | 63 | 332 | 2.0 | 4.0 | 0.00 | 0.00 | 0.00 | 71 | 1012.5 |
| 20260509041803 | 63 | 332 | 2.0 | 4.0 | 0.00 | 0.00 | 0.00 | 71 | 1012.5 |
| 20260509041203 | 63 | 332 | 1.0 | 4.0 | 0.00 | 0.00 | 0.00 | 70 | 1012.5 |
| 20260509040624 | 64 | 332 | 1.0 | 4.0 | 0.00 | 0.00 | 0.00 | 69 | 1012.5 |
| 20260509040003 | 64 | 333 | 1.0 | 4.0 | 0.00 | 0.00 | 0.00 | 69 | 1012.5 |
| 20260509035403 | 64 | 336 | 1.0 | 4.0 | 0.00 | 0.00 | 0.00 | 70 | 1012.6 |
| 20260509034803 | 64 | 340 | 1.0 | 4.0 | 0.00 | 0.00 | 0.00 | 70 | 1012.5 |
| 20260509034203 | 64 | 343 | 1.0 | 4.0 | 0.00 | 0.00 | 0.00 | 69 | 1012.4 |
| 20260509033603 | 64 | 345 | 1.0 | 4.0 | 0.00 | 0.00 | 0.00 | 69 | 1012.4 |
| 20260509033003 | 65 | 346 | 1.0 | 4.0 | 0.00 | 0.00 | 0.00 | 69 | 1012.4 |
| 20260509032403 | 65 | 346 | 1.0 | 4.0 | 0.00 | 0.00 | 0.00 | 68 | 1012.4 |
| 20260509031803 | 66 | 346 | 0.0 | 2.0 | 0.00 | 0.00 | 0.00 | 67 | 1012.4 |
| 20260509031203 | 66 | 347 | 0.0 | 2.0 | 0.00 | 0.00 | 0.00 | 66 | 1012.3 |
| 20260509030603 | 67 | 346 | 0.0 | 2.0 | 0.00 | 0.00 | 0.00 | 66 | 1012.3 |
| 20260509030003 | 67 | 297 | 0.0 | 2.0 | 0.00 | 0.00 | 0.00 | 65 | 1012.2 |
| 20260509025403 | 68 | 288 | 0.0 | 2.0 | 0.00 | 0.00 | 0.00 | 64 | 1012.2 |
| 20260509024824 | 68 | 288 | 0.0 | 2.0 | 0.00 | 0.00 | 0.00 | 62 | 1012.2 |
| 20260509024203 | 68 | 288 | 0.0 | 2.0 | 0.00 | 0.00 | 0.00 | 61 | 1012.4 |
| 20260509023603 | 69 | 288 | 0.0 | 2.0 | 0.00 | 0.00 | 0.00 | 60 | 1012.3 |
| 20260509023003 | 69 | 288 | 0.0 | 2.0 | 0.00 | 0.00 | 0.00 | 59 | 1012.3 |
| 20260509022403 | 70 | 288 | 0.0 | 2.0 | 0.00 | 0.00 | 0.00 | 57 | 1012.1 |
| 20260509021803 | 70 | 289 | 0.0 | 2.0 | 0.00 | 0.00 | 0.00 | 56 | 1012.2 |
| 20260509021203 | 71 | 300 | 1.0 | 6.0 | 0.00 | 0.00 | 0.00 | 55 | 1012.3 |
| 20260509020603 | 71 | 308 | 0.0 | 6.0 | 0.00 | 0.00 | 0.00 | 55 | 1012.3 |
| 20260509020003 | 72 | 316 | 0.0 | 4.0 | 0.00 | 0.00 | 0.00 | 53 | 1012.2 |
| 20260509015403 | 72 | 310 | 0.0 | 4.0 | 0.00 | 0.00 | 0.00 | 53 | 1012.3 |
| 20260509014803 | 72 | 316 | 1.0 | 6.0 | 0.00 | 0.00 | 0.00 | 53 | 1012.3 |
| 20260509014203 | 72 | 313 | 1.0 | 6.0 | 0.00 | 0.00 | 0.00 | 51 | 1012.3 |
| 20260509013603 | 73 | 307 | 1.0 | 6.0 | 0.00 | 0.00 | 0.00 | 45 | 1012.2 |
| 20260509013003 | 73 | 279 | 1.0 | 5.0 | 0.00 | 0.00 | 0.00 | 48 | 1012.2 |
| 20260509012403 | 73 | 280 | 2.0 | 8.0 | 0.00 | 0.00 | 0.00 | 45 | 1012.3 |
| 20260509011803 | 73 | 277 | 1.0 | 8.0 | 0.00 | 0.00 | 0.00 | 44 | 1012.4 |
| 20260509011203 | 74 | 295 | 1.0 | 7.0 | 0.00 | 0.00 | 0.00 | 44 | 1012.4 |
| 20260509010603 | 74 | 312 | 2.0 | 7.0 | 0.00 | 0.00 | 0.00 | 44 | 1012.4 |
| 20260509010003 | 74 | 314 | 3.0 | 7.0 | 0.00 | 0.00 | 0.00 | 44 | 1012.5 |
| 20260509005403 | 74 | 309 | 2.0 | 9.0 | 0.00 | 0.00 | 0.00 | 46 | 1012.5 |
| 20260509004803 | 74 | 300 | 2.0 | 8.0 | 0.00 | 0.00 | 0.00 | 45 | 1012.5 |
| 20260509004203 | 74 | 307 | 4.0 | 9.0 | 0.00 | 0.00 | 0.00 | 44 | 1012.6 |
| 20260509003603 | 74 | 307 | 4.0 | 9.0 | 0.00 | 0.00 | 0.00 | 44 | 1012.7 |
| 20260509003003 | 74 | 310 | 3.0 | 9.0 | 0.00 | 0.00 | 0.00 | 44 | 1012.7 |
| 20260509002403 | 74 | 305 | 2.0 | 8.0 | 0.00 | 0.00 | 0.00 | 45 | 1012.8 |
| 20260509001803 | 74 | 270 | 2.0 | 6.0 | 0.00 | 0.00 | 0.00 | 44 | 1012.7 |
| 20260509001203 | 74 | 296 | 1.0 | 7.0 | 0.00 | 0.00 | 0.00 | 45 | 1012.8 |
| 20260509000603 | 74 | 313 | 2.0 | 7.0 | 0.00 | 0.00 | 0.00 | 44 | 1012.8 |
| 20260509000024 | 74 | 305 | 2.0 | 6.0 | 0.00 | 0.00 | 0.00 | 45 | 1012.8 |
| 20260508235403 | 74 | 331 | 2.0 | 8.0 | 0.00 | 0.00 | 0.00 | 46 | 1012.8 |
| 20260508234803 | 74 | 330 | 2.0 | 7.0 | 0.00 | 0.00 | 0.00 | 47 | 1012.9 |
| 20260508234203 | 74 | 330 | 3.0 | 7.0 | 0.00 | 0.00 | 0.00 | 45 | 1012.9 |
| 20260508233624 | 74 | 309 | 3.0 | 7.0 | 0.00 | 0.00 | 0.00 | 45 | 1012.9 |
| 20260508233003 | 74 | 283 | 2.0 | 7.0 | 0.00 | 0.00 | 0.00 | 45 | 1012.9 |
| 20260508232403 | 74 | 266 | 2.0 | 7.0 | 0.00 | 0.00 | 0.00 | 44 | 1012.9 |
| 20260508231803 | 74 | 287 | 3.0 | 7.0 | 0.00 | 0.00 | 0.00 | 43 | 1013.0 |
| 20260508231224 | 74 | 299 | 2.0 | 8.0 | 0.00 | 0.00 | 0.00 | 46 | 1013.0 |
| 20260508230603 | 74 | 287 | 4.0 | 9.0 | 0.00 | 0.00 | 0.00 | 45 | 1013.2 |
| 20260508230003 | 74 | 304 | 6.0 | 11.0 | 0.00 | 0.00 | 0.00 | 45 | 1013.2 |
| 20260508225403 | 74 | 295 | 5.0 | 11.0 | 0.00 | 0.00 | 0.00 | 45 | 1013.1 |
| 20260508224803 | 75 | 287 | 4.0 | 9.0 | 0.00 | 0.00 | 0.00 | 47 | 1013.1 |
| 20260508224224 | 75 | 275 | 4.0 | 11.0 | 0.00 | 0.00 | 0.00 | 44 | 1013.3 |
| 20260508223603 | 74 | 278 | 4.0 | 11.0 | 0.00 | 0.00 | 0.00 | 46 | 1013.3 |
| 20260508223003 | 74 | 279 | 5.0 | 11.0 | 0.00 | 0.00 | 0.00 | 46 | 1013.5 |
| 20260508222403 | 74 | 283 | 4.0 | 11.0 | 0.00 | 0.00 | 0.00 | 46 | 1013.4 |
| 20260508221803 | 74 | 261 | 2.0 | 11.0 | 0.00 | 0.00 | 0.00 | 47 | 1013.6 |
| 20260508221224 | 74 | 254 | 3.0 | 11.0 | 0.00 | 0.00 | 0.00 | 45 | 1013.5 |
| 20260508220603 | 74 | 266 | 3.0 | 9.0 | 0.00 | 0.00 | 0.00 | 46 | 1013.5 |
| 20260508220003 | 75 | 256 | 2.0 | 11.0 | 0.00 | 0.00 | 0.00 | 46 | 1013.7 |
| 20260508215403 | 75 | 235 | 2.0 | 10.0 | 0.00 | 0.00 | 0.00 | 47 | 1013.9 |
| 20260508214803 | 74 | 255 | 2.0 | 10.0 | 0.00 | 0.00 | 0.00 | 46 | 1014.0 |
| 20260508214224 | 74 | 272 | 1.0 | 7.0 | 0.00 | 0.00 | 0.00 | 46 | 1014.0 |
| 20260508213603 | 74 | 277 | 2.0 | 7.0 | 0.00 | 0.00 | 0.00 | 48 | 1014.1 |
| 20260508213024 | 74 | 261 | 2.0 | 7.0 | 0.00 | 0.00 | 0.00 | 48 | 1014.1 |
| 20260508212403 | 75 | 234 | 2.0 | 7.0 | 0.00 | 0.00 | 0.00 | 50 | 1014.2 |
| 20260508211803 | 74 | 243 | 4.0 | 10.0 | 0.00 | 0.00 | 0.00 | 44 | 1014.2 |
| 20260508211203 | 74 | 259 | 3.0 | 10.0 | 0.00 | 0.00 | 0.00 | 46 | 1014.1 |
| 20260508210603 | 74 | 260 | 3.0 | 8.0 | 0.00 | 0.00 | 0.00 | 48 | 1014.1 |
| 20260508210003 | 74 | 255 | 3.0 | 8.0 | 0.00 | 0.00 | 0.00 | 49 | 1014.3 |
| 20260508205424 | 74 | 224 | 4.0 | 10.0 | 0.00 | 0.00 | 0.00 | 47 | 1014.3 |
| 20260508204803 | 74 | 233 | 3.0 | 10.0 | 0.00 | 0.00 | 0.00 | 47 | 1014.3 |
| 20260508204203 | 74 | 236 | 3.0 | 10.0 | 0.00 | 0.00 | 0.00 | 48 | 1014.2 |
| 20260508203603 | 74 | 226 | 2.0 | 8.0 | 0.00 | 0.00 | 0.00 | 46 | 1014.3 |
| 20260508203003 | 74 | 227 | 2.0 | 8.0 | 0.00 | 0.00 | 0.00 | 47 | 1014.3 |
| 20260508202403 | 74 | 230 | 2.0 | 7.0 | 0.00 | 0.00 | 0.00 | 45 | 1014.4 |
| 20260508201824 | 74 | 226 | 2.0 | 7.0 | 0.00 | 0.00 | 0.00 | 38 | 1014.5 |
| 20260508201203 | 74 | 208 | 2.0 | 9.0 | 0.00 | 0.00 | 0.00 | 40 | 1014.5 |
| 20260508200624 | 73 | 239 | 2.0 | 9.0 | 0.00 | 0.00 | 0.00 | 36 | 1014.6 |
| 20260508200003 | 73 | 254 | 2.0 | 8.0 | 0.00 | 0.00 | 0.00 | 37 | 1014.6 |
| 20260508195403 | 73 | 263 | 3.0 | 10.0 | 0.00 | 0.00 | 0.00 | 41 | 1014.6 |
| 20260508194803 | 73 | 290 | 4.0 | 8.0 | 0.00 | 0.00 | 0.00 | 37 | 1014.6 |
| 20260508194203 | 73 | 279 | 4.0 | 8.0 | 0.00 | 0.00 | 0.00 | 38 | 1014.5 |
| 20260508193603 | 73 | 260 | 3.0 | 8.0 | 0.00 | 0.00 | 0.00 | 35 | 1014.5 |
| 20260508193003 | 73 | 242 | 3.0 | 10.0 | 0.00 | 0.00 | 0.00 | 38 | 1014.5 |
| 20260508192424 | 73 | 254 | 4.0 | 10.0 | 0.00 | 0.00 | 0.00 | 36 | 1014.6 |
| 20260508191803 | 73 | 248 | 4.0 | 10.0 | 0.00 | 0.00 | 0.00 | 37 | 1014.6 |
| 20260508191203 | 73 | 250 | 3.0 | 10.0 | 0.00 | 0.00 | 0.00 | 41 | 1014.6 |
| 20260508190603 | 72 | 236 | 2.0 | 10.0 | 0.00 | 0.00 | 0.00 | 41 | 1014.7 |
| 20260508190024 | 72 | 246 | 3.0 | 11.0 | 0.00 | 0.00 | 0.00 | 41 | 1014.6 |
| 20260508185403 | 72 | 231 | 2.0 | 11.0 | 0.00 | 0.00 | 0.00 | 46 | 1014.6 |
| 20260508184803 | 72 | 212 | 1.0 | 7.0 | 0.00 | 0.00 | 0.00 | 44 | 1014.6 |
| 20260508184203 | 72 | 203 | 2.0 | 7.0 | 0.00 | 0.00 | 0.00 | 44 | 1014.5 |
| 20260508183603 | 72 | 208 | 1.0 | 5.0 | 0.00 | 0.00 | 0.00 | 43 | 1014.5 |
| 20260508183003 | 71 | 227 | 1.0 | 5.0 | 0.00 | 0.00 | 0.00 | 44 | 1014.6 |
| 20260508182403 | 71 | 117 | 1.0 | 5.0 | 0.00 | 0.00 | 0.00 | 46 | 1014.6 |
| 20260508181803 | 71 | 170 | 1.0 | 5.0 | 0.00 | 0.00 | 0.00 | 45 | 1014.6 |
| 20260508181203 | 71 | 295 | 1.0 | 5.0 | 0.00 | 0.00 | 0.00 | 49 | 1014.7 |
| 20260508180624 | 70 | 331 | 1.0 | 5.0 | 0.00 | 0.00 | 0.00 | 48 | 1014.8 |
| 20260508180003 | 70 | 331 | 2.0 | 6.0 | 0.00 | 0.00 | 0.00 | 49 | 1014.7 |
| 20260508175403 | 70 | 341 | 1.0 | 6.0 | 0.00 | 0.00 | 0.00 | 47 | 1014.8 |
| 20260508174803 | 71 | 122 | 0.0 | 2.0 | 0.00 | 0.00 | 0.00 | 47 | 1014.8 |
| 20260508174203 | 71 | 118 | 0.0 | 2.0 | 0.00 | 0.00 | 0.00 | 44 | 1014.8 |
| 20260508173603 | 71 | 104 | 0.0 | 1.0 | 0.00 | 0.00 | 0.00 | 40 | 1014.7 |
| 20260508173024 | 71 | 104 | 0.0 | 2.0 | 0.00 | 0.00 | 0.00 | 41 | 1014.7 |
| 20260508172424 | 71 | 83 | 0.0 | 4.0 | 0.00 | 0.00 | 0.00 | 44 | 1014.6 |
| 20260508171803 | 71 | 76 | 1.0 | 4.0 | 0.00 | 0.00 | 0.00 | 45 | 1014.7 |